Radarsat

operational
NORAD ID: 23710 Int'l Des: 1995-059 Owner: CSA Country: CA
LEOCIRCULARRETROGRADESSO

关于 Radarsat

正在加载描述...

实时位置

正在加载3D地球...

即将过境

高度历史

Altitude vs Time

uPlot chart will show altitude changes over time

两行轨道根数

1 23710U 95059A 26063.03474470 .00000372 00000-0 15396-3 0 9996
2 23710 98.5506 73.4715 0001194 74.8616 285.2700 14.32344701583292
Epoch: Mar 4, 2026 • Age: 23 hours

当前状态

高度 796.5 km
速度 7.46 km/s
星下点 80.87°N, 174.19°E
发射日期 Nov 4, 1995
运行时间 30.3 years
类型 other

技术详情

分类 Payload
质量 2750.00 kg
干质量 2750.00 kg
总质量 2750.00 kg
长度 4.20 m
直径 2.80 m
跨度 15.00 m
形状 Box + 2 Pan
制造商 SPARM/BALL
平台类型 RME/BCP-2000
阶段状态 In Orbit
所有者/国家 CSA/CA

大型星座

Loading constellations...